Skynet 4F

operational
NORAD ID: 26695 Int'l Des: 2001-005 Owner: MOD Country: UK
HEOCIRCULAR

About Skynet 4F

Description loading...

Live Position

Loading 3D Globe...

Upcoming Passes

Altitude History

Altitude vs Time

uPlot chart will show altitude changes over time

Two-Line Element Set

1 26695U 01005B 26019.72366234 -.00000168 00000-0 00000-0 0 9991
2 26695 11.9670 19.3741 0007399 230.9521 129.5070 0.99151139 91135
Epoch: Jan 19, 2026 • Age: 25 hours

Current Status

Altitude 36126.2 km
Velocity 3.06 km/s
Sub-Earth Point 1.84°N, 4.1°W
Launch Date Feb 7, 2001
Age 24.9 years
Type other

Technical Details

Classification Payload
Mass 1489.00 kg
Dry Mass 830.00 kg
Total Mass 2119.00 kg
Length 1.80 m
Diameter 1.90 m
Span 16.10 m
Shape Box + 2 Pan
Manufacturer ASTUK
Bus Type ECS
Phase Status Renamed
Owner/State MOD/UK

Large Constellations

Loading constellations...